Weather History for KDSV - March, 2012

Change the Weather History Date:

Saturday, March 31, 2012

  Actual Average Record
Temperature  
Mean Temperature 37 °F -  
Max Temperature 39 °F 52 °F 85 °F (1977)
Min Temperature 35 °F 30 °F 11 °F (1969)
Degree Days  
Heating Degree Days 28    
Moisture  
Dew Point 35 °F    
Average Humidity 89    
Maximum Humidity 100    
Minimum Humidity 76    
Precipitation  
Precipitation 0.00 in - - ()
Sea Level Pressure  
Sea Level Pressure 29.91 in    
Wind  
Wind Speed 6 mph (NW)    
Max Wind Speed 10 mph    
Max Gust Speed -    
Visibility 8 miles    
Events      
Averages and records for this station are not official NWS values.
T = Trace of Precipitation, MM = Missing Value Source: NWS Daily Summary

Daily Weather History Graph

Daily Weather History Graph

Search for Another Location

Airport or City:

Trip Planner

Search our weather history database for the weather conditions in past years. The results will help you decide how hot, cold, wet, or windy it might be!

Date:

Astronomy

Mar. 31, 2012 Rise Set
Actual Time 6:54 AM EDT 7:36 PM EDT
Civil Twilight 6:25 AM EDT 8:04 PM EDT
Nautical Twilight 5:52 AM EDT 8:38 PM EDT
Astronomical Twilight 5:17 AM EDT 9:13 PM EDT
Moon 12:54 PM EDT (3/31) 2:57 AM EDT (3/31)
Length of Visible Light 13h 39m
Length of Day
12h 42m
First Quarter, 59% of the Moon is Illuminated
Mar 31
First Quarter
Apr 6
Full
Apr 13
Last Quarter
Apr 21
New
Apr 29
First Quarter

Hourly Weather History & Observations

Time (EDT) Temp. Windchill Dew Point Humidity Pressure Visibility Wind Dir Wind Speed Gust Speed Precip Events Conditions
12:22 AM 37.4 °F 32.1 °F 32.0 °F 81% 29.86 in 10.0 mi SE 6.9 mph - N/A   Overcast
12:54 AM 37.9 °F - 32.0 °F 79% 29.89 in 10.0 mi Calm Calm - N/A   Overcast
1:06 AM 37.4 °F 34.9 °F 33.8 °F 87% 29.85 in 10.0 mi North 3.5 mph - N/A   Overcast
1:54 AM 37.0 °F 32.4 °F 35.1 °F 93% 29.88 in 7.0 mi NW 5.8 mph - N/A   Overcast
3:11 AM 35.6 °F 29.9 °F 35.6 °F 100% 29.82 in 4.0 mi NNW 6.9 mph - N/A   Overcast
3:54 AM 37.0 °F 33.3 °F 35.1 °F 93% 29.86 in 4.0 mi NNW 4.6 mph - N/A   Overcast
4:04 AM 37.4 °F 33.8 °F 35.6 °F 93% 29.82 in 3.0 mi NNW 4.6 mph - N/A   Overcast
4:11 AM 37.4 °F 33.8 °F 35.6 °F 93% 29.82 in 3.0 mi NNW 4.6 mph - N/A   Overcast
4:42 AM 37.4 °F 32.1 °F 35.6 °F 93% 29.82 in 4.0 mi NNW 6.9 mph - N/A   Overcast
4:54 AM 37.0 °F 31.6 °F 35.1 °F 93% 29.86 in 5.0 mi NW 6.9 mph - N/A   Overcast
5:41 AM 37.4 °F 33.8 °F 35.6 °F 93% 29.82 in 6.0 mi NW 4.6 mph - N/A   Overcast
5:54 AM 37.0 °F 33.3 °F 35.1 °F 93% 29.86 in 8.0 mi NW 4.6 mph - N/A   Overcast
6:08 AM 37.4 °F 32.1 °F 35.6 °F 93% 29.83 in 10.0 mi NW 6.9 mph - N/A   Overcast
6:40 AM 37.4 °F 32.1 °F 35.6 °F 93% 29.85 in 6.0 mi NW 6.9 mph - N/A   Overcast
6:54 AM 37.0 °F 33.3 °F 35.1 °F 93% 29.89 in 5.0 mi WNW 4.6 mph - N/A   Overcast
7:26 AM 37.4 °F 31.4 °F 35.6 °F 93% 29.87 in 5.0 mi NW 8.1 mph - N/A   Overcast
8:38 AM 37.4 °F 31.4 °F 35.6 °F 93% 29.89 in 9.0 mi NW 8.1 mph - N/A   Overcast
8:52 AM 37.4 °F 32.1 °F 35.6 °F 93% 29.89 in 4.0 mi NW 6.9 mph - N/A   Overcast
8:54 AM 37.0 °F 31.6 °F 35.1 °F 93% 29.94 in 4.0 mi NW 6.9 mph - N/A   Overcast
9:06 AM 37.4 °F 32.1 °F 35.6 °F 93% 29.89 in 4.0 mi NW 6.9 mph - N/A   Overcast
9:31 AM 37.4 °F 32.1 °F 35.6 °F 93% 29.90 in 9.0 mi NW 6.9 mph - N/A   Overcast
9:54 AM 37.9 °F 33.5 °F 35.1 °F 89% 29.94 in 10.0 mi WNW 5.8 mph - N/A   Overcast
10:54 AM 37.9 °F 32.1 °F 35.1 °F 89% 29.95 in 10.0 mi NW 8.1 mph - N/A   Overcast
11:54 AM 39.0 °F 32.3 °F 35.1 °F 86% 29.96 in 10.0 mi NNW 10.4 mph - N/A   Overcast
12:08 PM 39.2 °F 32.5 °F 35.6 °F 87% 29.92 in 10.0 mi NNW 10.4 mph - N/A   Overcast
12:54 PM 39.0 °F 32.3 °F 36.0 °F 89% 29.96 in 10.0 mi NW 10.4 mph - N/A   Overcast
1:26 PM 39.2 °F 33.6 °F 35.6 °F 87% 29.92 in 9.0 mi NW 8.1 mph - N/A   Overcast
1:54 PM 39.0 °F 32.8 °F 36.0 °F 89% 29.96 in 10.0 mi NW 9.2 mph - N/A   Overcast
2:19 PM 39.2 °F 32.5 °F 35.6 °F 87% 29.91 in 10.0 mi NW 10.4 mph - N/A   Overcast
2:54 PM 39.9 °F 34.5 °F 36.0 °F 86% 29.96 in 10.0 mi NW 8.1 mph - N/A   Overcast
3:54 PM 39.0 °F 32.8 °F 36.0 °F 89% 29.96 in 9.0 mi NW 9.2 mph - N/A   Overcast
4:01 PM 39.2 °F 32.5 °F 35.6 °F 87% 29.92 in 10.0 mi NW 10.4 mph - N/A   Overcast
4:25 PM 39.2 °F 33.0 °F 35.6 °F 87% 29.93 in 7.0 mi NW 9.2 mph - N/A   Overcast
4:50 PM 39.2 °F 33.0 °F 35.6 °F 87% 29.92 in 9.0 mi NNW 9.2 mph - N/A   Overcast
4:54 PM 39.0 °F 32.8 °F 35.1 °F 86% 29.96 in 9.0 mi NNW 9.2 mph - N/A   Overcast
5:54 PM 39.0 °F 33.4 °F 35.1 °F 86% 29.96 in 10.0 mi NW 8.1 mph - N/A   Overcast
6:54 PM 39.0 °F 35.7 °F 35.1 °F 86% 29.96 in 10.0 mi NW 4.6 mph - N/A   Overcast
7:54 PM 39.0 °F 34.0 °F 34.0 °F 82% 29.98 in 10.0 mi NW 6.9 mph - N/A   Overcast
8:04 PM 39.2 °F 35.0 °F 35.6 °F 87% 29.94 in 10.0 mi NW 5.8 mph - N/A   Overcast
8:54 PM 39.0 °F 36.8 °F 34.0 °F 82% 29.99 in 10.0 mi NW 3.5 mph - N/A   Overcast
9:54 PM 39.0 °F - 34.0 °F 82% 29.97 in 10.0 mi Calm Calm - N/A   Overcast
10:54 PM 39.0 °F - 33.1 °F 79% 29.97 in 10.0 mi Calm Calm - N/A   Overcast
11:54 PM 39.0 °F - 32.0 °F 76% 29.97 in 10.0 mi Calm Calm - N/A   Overcast